loading
|

THOR ABLESTAR DEB, 128

Orbit data source: Space-Track

THOR ABLESTAR DEB, 128 is space debris in LEO originally from a launch on Thu, 29 Jun 1961 UTC launched from the Air Force Eastern Test Range (AFETR). Debris objects in space refer to the collection of defunct objects orbiting the Earth. Examples of debris include non-operational satellites, rocket bodies, and fragments generated from explosions, collisions, or faulty payload assembly.

Loading next visibility...
Loading greatness...
THOR ABLESTAR DEB details
Identifier
128, 1961-015N
Orbit
LEO
Last TLE update12 hours ago
Origin
Flag of USUSAF SSD (US)
ManufacturerUnknown
Mission statusUnknown
MissionUnknown
Bus & MotorUnknown
MassUnknown
Launch date (UTC)
1961-06-29 (63 years ago)
Launch vehicleUnknown
Launch site
Air Force Eastern Test Range (AFETR)
Object type
Payload
Rocket body
Debris
Radar Cross SectionMedium (>0.1 m² and <1 m²)

Expand to show TLE details & history

TLE from 12 hours ago
0 THOR ABLESTAR DEB
1 00128U 61015N   24258.74717619  .00000409  00000-0  31124-3 0  9994
2 00128  66.6775 341.1710 0089256  34.3644 326.3168 14.01684407225307
Epoch: 2024-09-14T17:55Z
Definitive object data (Epoch: 2024-09-14T17:55:56.022Z)
Latitude-0.00002°
Longitude77.98711°
Altitude836.253 km
Speed7.463 km/s
True Right ascension22h 44m 41s
True Declination0° 00' 00"
Sunlit
Object was in full shadow at TLE epoch
Predictive object data (real-time)
Latitude66.56697°
Longitude158.37357°
Altitude858.937 km
Speed7.45 km/s
Apparent Right ascension08h 43m 58s
Apparent Declination26° 32' 07"
Sunlit
Object is in daylight
Predictive observer data (real-time)
Local Sidereal Time22:57:50
Azimuth30.986° NE
Elevation-16.604°
Doppler factor1
Orbital elements
Apogee951.207 km
Perigee821.527 km
Semi-major axis7,264.504 km
Eccentricity0.0089256
Inclination66.6775°
RAAN341.171°
Arg. of periapsis34.3644°
True anomaly325.74425°
Mean anomaly326.3168°
Eccentric anomaly326.03106°
Mean motion3.50537 °/min
BSTAR0.00031124
Period102.7 mins
No data available

THOR ABLESTAR DEB Visibility forecast

Observer location: 39.9160978°, -105.1181434

THOR ABLESTAR DEB is not visible in the next 10 days
Span
Click to sort rows by Start time (UTC) header in descending order
Start Az.
Max El. time (UTC)
Max El. Az.
Max El.
End time (UTC)
End Az.